Regional Weather Roundup
Issued by NWS Wakefield, VA

Home | Current Version | Previous Version | Text Only | Print | Product List | Glossary Off
Versions: 1 2 3 4 5 6 7 8 9 10 11 12 13 14 15 16 17 18 19 20 21 22 23 24 25 26 27

000
ASUS41 KAKQ 190715
RWRAKQ

REGIONAL WEATHER ROUNDUP
NATIONAL WEATHER SERVICE WAKEFIELD VA
300 AM EDT THU OCT 19 2017

Note: "fair" indicates few or no clouds below 12,000 feet with no
significant weather and/or obstructions to visibility. * = Denotes
station may not report precipitation (e.g., rain,snow,etc.),
thunder or fog.

VAZ042-051-052>054-056-190800-
NORTHERN VIRGINIA

CITY           SKY/WX    TMP DP  RH WIND       PRES   REMARKS
WASH NATIONAL  PTCLDY    51  46  83 SW5       30.30F
DULLES         PTCLDY    46  43  89 S3        30.28F
FORT BELVOIR   PTCLDY    43  42  95 CALM      30.30S
QUANTICO       PTCLDY    47  46  97 NW7       30.31F
FREDERICKSBRG* CLEAR     44  44 100 CALM      30.30S
STAFFORD*      CLEAR     38  38 100 CALM      30.34S
WARRENTON      FOG       36  33  90 CALM      30.28F VSB 1
CULPEPER*      PTCLDY    40  38  94 CALM      30.29F
MANASSAS*      PTCLDY    39  38  96 CALM      30.29F
LEESBURG*      PTCLDY    43  43 100 CALM      30.29S
WINCHESTER     CLEAR     45  39  81 SW3       30.26F
FRONT ROYAL*   SUNNY     46  41  81 MISG      30.25F
LURAY*         SUNNY     41  41 100 CALM      30.27F
$$

VAZ048-049-060>072-079>083-190800-
CENTRAL AND SOUTH CENTRAL VIRGINIA

CITY           SKY/WX    TMP DP  RH WIND       PRES   REMARKS
RICHMOND       CLOUDY    45  43  93 CALM      30.30F
CHESTERFIELD*  NOT AVBL
PETERSBURG*    CLOUDY   N/A N/A N/A CALM      30.31F
HANOVER        CLOUDY    43  42  97 CALM      30.31F
TAPPAHANNOCK*  CLOUDY   N/A N/A N/A CALM      30.31F
QUINTON*       FAIR      44  44 100 CALM      30.30F
CHARLOTTSVILLE PTCLDY    47  44  90 W5        30.28F
GORDONSVILLE*  SUNNY     40  40 100 SW3       30.29S
ORANGE*        CLEAR     39  37  93 CALM      30.29F
LOUISA*        CLEAR     45  39  81 S3        30.29F
BUMPASS*       FAIR      41  41 100 S3        30.30S
FARMVILLE*     CLEAR     37  37 100 SW3       30.29F FOG
CREWE*         FAIR      37  37 100 CALM      30.30F
FORT PICKETT*  FAIR      42  42 100 CALM      30.31S
CHASE CITY*    FAIR      41  41 100 CALM      30.30F
CLARKSVILLE*   FAIR      41  41 100 CALM      30.30F
SOUTH HILL*    CLOUDY    40  40  99 CALM      30.37S
LAWRENCEVILLE* FAIR      42  41  97 CALM      30.31S
EMPORIA*       PTCLDY    41  41 100 CALM      30.33S
$$

VAZ088>098-190800-
SOUTHEAST VIRGINIA

CITY           SKY/WX    TMP DP  RH WIND       PRES   REMARKS
NORFOLK        CLEAR     53  51  93 CALM      30.30F
VIRGINIA BEACH CLEAR     49  46  90 CALM      30.29F
NORFOLK NAVAL  PTCLDY    51  49  92 CALM      30.31F
WEST POINT*    PTCLDY    41  41 100 CALM      30.32F
SALUDA*        FAIR      47  47 100 CALM      30.30F
NEWPORT NEWS   PTCLDY    46  44  93 CALM      30.31F
LANGLEY AFB    PTCLDY    49  48  98 CALM      30.30F
FORT EUSTIS    CLEAR     48  45  87 CALM      30.28F
WILLIAMSBURG*  PTCLDY    50  48  93 CALM      30.32S
HR EXEC AP*    NOT AVBL
FRANKLIN*      PTCLDY    42  41  95 CALM      30.31F
US460-WAKEFLD  PTCLDY    43  43 100 CALM      30.31F
$$

VAZ020-022-025-037-045-190800-
WEST CENTRAL AND SOUTHWEST VIRGINIA

CITY           SKY/WX    TMP DP  RH WIND       PRES   REMARKS
STAUNTON*      PTCLDY    38  36  91 W3        30.30F
WAYNESBORO*    MOSUNNY   40  39  97 SW3       30.29F
HOT SPRINGS VA CLEAR     46  31  55 CALM      30.31F
LYNCHBURG      PTCLDY    41  40  96 CALM      30.30F
DANVILLE       PTCLDY    41  32  70 CALM      30.31F
SOUTH BOSTON*  FAIR      37  36  95 CALM      30.31F
MARTINSVILLE   PTCLDY    37  37  97 CALM      30.33F
ROANOKE        CLEAR     45  42  89 CALM      30.32F
BLACKSBURG     CLEAR     41  40  97 CALM      30.34F
DUBLIN*        CLEAR     41  39  93 CALM      30.33S
MARION*        CLEAR     40  38  91 CALM      30.34S
HILLSVILLE*    CLEAR     47  36  65 S5        30.30F
RICHLANDS*     FAIR      49  39  68 CALM      30.29S
WISE*          CLEAR     54  41  62 S7        30.29F
ABINGDON*      CLEAR     49  42  76 CALM      30.30S
$$

MDZ021>025-VAZ099-100-190800-
SOUTHERN MARYLAND AND THE DELMARVA PENINSULA

CITY           SKY/WX    TMP DP  RH WIND       PRES   REMARKS
PATUXENT RIVER PTCLDY    54  50  86 SW6       30.29F
BAY BRIDGE APT PTCLDY    54  48  82 S3        30.29F
LEONARDTOWN    NOT AVBL
DOVER          CLEAR     49  49 100 S6        30.28F
GEORGETOWN     PTCLDY    47  44  90 CALM      30.31F
EASTON         MOCLDY    48  46  91 CALM      30.33F
CAMBRIDGE      CLEAR     45  45 100 CALM      30.30F
SALISBURY      CLEAR     41  40  96 E3        30.31F
OCEAN CITY     CLEAR     44  43  96 CALM      30.31F
WALLOPS ISLAND CLEAR     45  44  97 CALM      30.31F
ACCOMACK*      CLEAR     45  45  99 CALM      30.30F
$$

NCZ012>017-030>032-190800-
NORTH CENTRAL AND EASTERN NORTH CAROLINA

CITY           SKY/WX    TMP DP  RH WIND       PRES   REMARKS
ROANOKE RAPIDS FAIR      43  43 100 CALM      30.31S
RALEIGH        CLOUDY    44  43  96 CALM      30.30F
ELIZABETH CITY PTCLDY    59  56  89 N7        30.29F
AHOSKIE*       PTCLDY    46  46 100 CALM      30.31S
EDENTON*       PTCLDY    55  53  91 CALM      30.30F
CURRITUCK*     PTCLDY    52  51  97 CALM      30.30F
KILL DEVIL HLS PTCLDY    64  57  78 CALM      30.27F
MANTEO         PTCLDY    59  57  93 E7        30.28F
CAPE HATTERAS  PTCLDY    67  63  87 NE6       30.25F
TARBORO*       NOT AVBL
GOLDSBORO      CLEAR     51  49  93 CALM      30.27F
WASHINGTON     MOCLDY    56  54  91 NE6       30.29F
GREENVILLE       N/A     46  46 100 CALM      30.30S FOG
NEW BERN       PTCLDY    58  57  97 NE6       30.28F
WILMINGTON     CLEAR     58  55  90 N8        30.25F
$$

VAZ048-190800-
ELSEWHERE

CITY           SKY/WX    TMP DP  RH WIND       PRES   REMARKS
HARRISBURG PA  PTCLDY    51  47  86 E6        30.26S
BALTIMORE      PTCLDY    45  45 100 CALM      30.28F
ANNAPOLIS      PTCLDY    53  52  96 CALM      30.28F
ANDREWS AFB    CLEAR     48  44  88 S3        30.28F
PHILADELPHIA   PTCLDY    53  47  79 SW6       30.29F
HENDERSON NC   CLOUDY    42  40  93 CALM      30.31F
GREENSBORO     PTCLDY    45  41  86 CALM      30.30S
ROCKY MOUNT    CLOUDY    48  48 100 CALM      30.31S
$$

VAZ100-190800-
MARINE

STATION/POSITION TIME  TEMP    WIND        PRES    WAVE   SWELL
                       AIR SEA DIR/SP/G            HT/PER HT/PER
                 (UTC) (F)     (DEG/KT/KT) (MB)    (FT/S) (FT/S)
BRANDYWINE LGT   0642          240/ 12/ 13 1026.1F
CAPE MAY NJ      0648      64  230/  8/ 10 1025.3F
LEWES DE         0648      65  220/  5/  7 1025.8F
15NM E FENWICK I 0650   63 67  220/  6/  8 1026.7F   3/ 9   3/ 9
OCEAN-CITY-INLET 0648      65  290/  2/  3 1026.5F
WACHAPREAGUE VA  0648      62     CALM     1026.2F
THOMAS POINT MD  0700   58 67  220/ 10/ 12   N/A
GOOSES REEF MD   0620   62     260/ 12/ 12 1026.0F
COVE POINT MD    0648          230/  9/ 11 1026.4F
SOLOMONS ISLAND  0648      69  200/  7/  8 1025.4F
BISHOPS HEAD MD  0648      63  180/  6/  8 1026.2F
PINEY POINT MD   0648          220/ 10/ 11   N/A
POTOMAC MD       0620   61     200/ 10/ 12 1025.6F
CAMBRIDGE MD     0648      66              1026.6F
LEWISETTA VA     0648      65  220/  3/  4 1026.0F
RAPPAHANNOCK LGT 0648          140/  7/  8 1026.7F
YORK RVR RNG VA  0648          240/  5/  5 1026.5F
YORKTOWN VA      0648      70  210/  3/  4 1025.8F
DOMINION TERM VA 0648          150/  3/  3 1026.2F
KIPTOPEKE VA     0648      67   90/  4/  4   N/A
CAPE HENRY VA    0648          120/  3/  4   N/A
WILLOUBY STN VA  0648          150/  3/  3 1025.9F
S CRANEY ISL VA  0648           CALM  /  1 1025.9F
CAPE HENRY BUOY  0630      70                N/A     3/10
CAPE CHARLES BUO 0651      70                N/A     3/ 9
64NM E OF VA BCH 0650   67 67   60/  8/ 10 1026.1F   3/ 9   3/ 9
DUCK PIER NC     0648      68   50/  9/ 10 1025.1F
44100 DUCK FRF   0635      70                N/A     4/ 8   2/11
44056 DUCK FRF   0630      69                N/A     3/ 7   2/11
OREGON INLET NC  0642      65   40/ 11/ 12 1024.8F
HATTERAS NC      0648      68   40/  9/ 12 1024.0F
DIAMOND SHLS NC  0650   74 81   90/  8/ 12 1023.8F   5/10   5/10
CAPE LOOKOUT NC  0600   64     360/ 12/ 14 1023.9F
$$




USA.gov is the U.S. government's official web portal to all federal, state and local government web resources and services.